KJ7AZ-3 Weather Reports


time (UTC)temp
F
wind
direction
speed
knots
gust
knots
rain 1hr
in
rain 24hr
in
rain mn
in
humidity
%
barometer
mb
20260508100336 41 172 0.0 0.0 0.00 0.00 0.00
20260508093340 42 172 0.0 0.0 0.00 0.00 0.00
20260508091841 44 172 0.0 0.0 0.00 0.00 0.00
20260508090343 41 172 0.0 0.0 0.00 0.00 0.00
20260508084844 41 172 0.0 0.0 0.00 0.00 0.00
20260508083346 44 172 0.0 0.0 0.00 0.00 0.00
20260508081848 45 172 0.0 0.0 0.00 0.00 0.00
20260508080349 45 172 0.0 0.0 0.00 0.00 0.00
20260508074853 46 172 0.0 0.0 0.00 0.00 0.00
20260508073352 44 172 0.0 0.0 0.00 0.00 0.00
20260508071853 44 172 0.0 0.0 0.00 0.00 0.00
20260508070355 46 172 0.0 0.0 0.00 0.00 0.00
20260508063358 51 172 0.0 0.0 0.00 0.00 0.00
20260508061859 51 172 0.0 0.0 0.00 0.00 0.00
20260508060400 48 172 0.0 0.0 0.00 0.00 0.00
20260508054902 50 172 0.0 0.0 0.00 0.00 0.00
20260508053403 52 172 0.0 0.0 0.00 0.00 0.00
20260508051904 52 172 0.0 0.0 0.00 0.00 0.00
20260508050405 52 172 0.0 0.0 0.00 0.00 0.00
20260508044906 52 194 0.0 0.0 0.00 0.00 0.00
20260508043408 50 194 0.0 0.0 0.00 0.00 0.00
20260508041909 51 194 0.0 0.0 0.00 0.00 0.00
20260508040410 55 194 0.0 0.0 0.00 0.00 0.00
20260508034911 54 194 0.0 0.0 0.00 0.00 0.00
20260508033412 52 194 0.0 0.0 0.00 0.00 0.00
20260508031913 54 194 0.0 0.0 0.00 0.00 0.00
20260508030414 55 194 0.0 0.0 0.00 0.00 0.00
20260508024915 56 194 0.0 0.0 0.00 0.00 0.00
20260508023416 58 194 0.0 0.0 0.00 0.00 0.00
20260508020417 59 194 0.0 0.0 0.00 0.00 0.00
20260508014918 62 194 0.0 0.0 0.00 0.00 0.00
20260508013418 67 194 0.0 0.0 0.00 0.00 0.00
20260508011919 71 207 0.0 1.7 0.00 0.00 0.00
20260508010419 71 245 0.9 2.6 0.00 0.00 0.00
20260508004919 72 238 3.5 5.2 0.00 0.00 0.00
20260508001919 75 233 1.7 2.6 0.00 0.00 0.00
20260508000419 75 267 1.7 0.9 0.00 0.00 0.00
20260507234919 74 218 4.3 0.0 0.00 0.00 0.00
20260507233419 76 267 2.6 1.7 0.00 0.00 0.00
20260507231920 76 238 1.7 1.7 0.00 0.00 0.00
20260507230420 76 264 3.5 3.5 0.00 0.00 0.00
20260507224920 77 208 5.2 1.7 0.00 0.00 0.00
20260507223421 76 253 4.3 3.5 0.00 0.00 0.00
20260507221921 77 248 1.7 7.8 0.00 0.00 0.00
20260507220422 76 231 5.2 4.3 0.00 0.00 0.00
20260507214922 76 321 5.2 3.5 0.00 0.00 0.00
20260507213423 76 236 5.2 4.3 0.00 0.00 0.00
20260507211922 75 187 6.1 3.5 0.00 0.00 0.00
20260507210423 73 243 4.3 5.2 0.00 0.00 0.00
20260507204923 74 269 4.3 0.9 0.00 0.00 0.00
20260507201924 73 245 6.1 5.2 0.00 0.00 0.00
20260507200424 73 228 4.3 2.6 0.00 0.00 0.00
20260507194925 73 245 2.6 4.3 0.00 0.00 0.00
20260507193425 71 246 1.7 0.0 0.00 0.00 0.00
20260507190426 70 298 7.8 1.7 0.00 0.00 0.00
20260507184927 69 250 0.9 0.9 0.00 0.00 0.00
20260507183427 69 294 1.7 0.9 0.00 0.00 0.00
20260507181928 67 232 0.0 0.0 0.00 0.00 0.00
20260507180428 67 191 1.7 5.2 0.00 0.00 0.00
20260507174929 68 210 2.6 1.7 0.00 0.00 0.00
20260507173430 66 245 0.0 0.0 0.00 0.00 0.00
20260507171930 66 232 0.9 0.0 0.00 0.00 0.00
20260507170431 65 295 3.5 0.9 0.00 0.00 0.00
20260507164932 66 222 0.0 0.0 0.00 0.00 0.00
20260507163433 67 188 1.7 2.6 0.00 0.00 0.00
20260507161934 66 153 0.0 0.0 0.00 0.00 0.00
20260507160435 65 107 0.0 0.0 0.00 0.00 0.00
20260507154936 65 6 0.0 0.0 0.00 0.00 0.00
20260507151938 63 75 0.0 0.0 0.00 0.00 0.00
20260507150439 62 101 0.0 0.0 0.00 0.00 0.00
20260507144941 59 72 0.9 1.7 0.00 0.00 0.00
20260507143442 56 108 1.7 1.7 0.00 0.00 0.00
20260507141943 54 68 3.5 1.7 0.00 0.00 0.00
20260507140445 53 60 2.6 1.7 0.00 0.00 0.00
20260507134946 51 101 2.6 3.5 0.00 0.00 0.00
20260507133448 49 103 3.5 2.6 0.00 0.00 0.00
20260507131949 48 139 2.6 0.9 0.00 0.00 0.00
20260507130450 46 114 3.5 5.2 0.00 0.00 0.00
20260507124955 44 101 3.5 4.3 0.00 0.00 0.00
20260507123454 41 100 3.5 2.6 0.00 0.00 0.00
20260507120456 38 113 4.3 1.7 0.00 0.00 0.00
20260507114958 39 128 3.5 3.5 0.00 0.00 0.00
20260507112001 39 108 3.5 4.3 0.00 0.00 0.00
20260507110503 38 125 1.7 1.7 0.00 0.00 0.00
20260507105004 39 128 1.7 1.7 0.00 0.00 0.00
20260507103506 39 59 4.3 5.2 0.00 0.00 0.00
20260507102007 39 118 1.7 2.6 0.00 0.00 0.00